Location: Buckland
(65.9785°N, 161.1281°W)
Time: 04:53:04
(UTC+00:00)

Transit 4A - Pass Details

Date: 05 December 2020
Orbit: 864 x 980 km, 66.8° (Epoch: 26 January)

Event Time Altitude Azimuth Distance (km) Brightness Sun altitude
Rises 00:19:16 0° 298° (WNW) 3,694 11.0 -0.6°
Reaches altitude 10° 00:21:53 10° 295° (WNW) 2,743 10.4 -0.7°
Maximum altitude 00:28:12 63° 217° (SW) 1,085 8.7 -1.0°
Drops below altitude 10° 00:34:25 10° 138° (SE) 2,691 10.6 -1.2°
Sets 00:36:57 0° 135° (SE) 3,620 11.2 -1.4°
